Regional Weather Roundup
Issued by NWS Charleston, SC

Current Version | Previous Version | Graphics & Text | Print | Product List | Glossary On
Versions: 1 2 3 4 5 6 7 8 9 10 11 12 13 14 15 16 17 18 19 20 21 22 23 24 25 26 27 28 29 30 31 32 33 34 35 36 37 38 39 40 41 42 43 44 45 46 47 48 49 50
126
ASUS42 KCHS 222226
RWRCHS

REGIONAL WEATHER ROUNDUP
NATIONAL WEATHER SERVICE CHARLESTON SC
500 PM EST WED FEB 22 2017

NOTE: "FAIR" INDICATES FEW OR NO CLOUDS BELOW 12,000 FEET WITH NO
SIGNIFICANT WEATHER AND/OR OBSTRUCTIONS TO VISIBILITY.

NOT ALL STATIONS ARE QUALITY CONTROLLED. USE DATA WITH CAUTION...
ESPECIALLY DEWPOINT OBSERVATIONS.

SCZ027-030-031-034>040-042>050-222300-
...SOUTHEAST SOUTH CAROLINA...

CITY           SKY/WX    TMP DP  RH WIND       PRES   REMARKS
N CHARLESTON   CLOUDY    69  59  70 E12G21    29.88S
WATERFRONT PRK   N/A     67  62  84 E12       29.87R
MOUNT PLEASANT FAIR      68  61  77 E3        29.89S
JOHNS ISLAND   FAIR      68  61  77 E9        29.87F
PINOPOLIS        N/A     70  59  68 E5        29.81S
MONCKS CORNER  FAIR      68  55  64 SE7       29.89S
SUMMERVILLE    CLOUDY    70  57  64 SE5       29.89S
BEAUFORT MCAS  CLOUDY    68  62  81 E9        29.85F
BEAUFORT ARPT  FAIR      68  59  73 E12       29.85R
HILTON HEAD IS MOSUNNY   66  61  82 NE9       29.85S
WALTERBORO     CLOUDY    70  55  60 SE9G16    29.87F
ALLENDALE      CLOUDY    70  57  64 SE6       29.85S

...SOUTHERN MIDLANDS AND PEE DEE...

CITY           SKY/WX    TMP DP  RH WIND       PRES   REMARKS
GEORGETOWN     MOCLDY    68  55  64 E8        29.91F
KINGSTREE      FAIR      68  54  60 SE12      29.90S
ORANGEBURG     CLOUDY    72  55  55 E6        29.87S
BARNWELL       FAIR      73  59  60 E9        29.86S
AIKEN          FAIR      68  55  64 E7        29.90S
MANNING        FAIR      68  45  42 MISG      29.90R
COLUMBIA       CLOUDY    73  53  49 SE9       29.87S
SUMTER         CLOUDY    73  52  47 SE8       29.86S
FLORENCE       CLOUDY    71  50  47 S10       29.89S
MYRTLE BEACH   MOSUNNY   66  55  68 E12       29.93R
N MYRTLE BEACH CLOUDY    66  57  72 E6        29.92S

$$

GAZ063-065-086>088-099>101-113>116-118-119-134>141-150-222300-
...SOUTHEAST GEORGIA...

CITY           SKY/WX    TMP DP  RH WIND       PRES   REMARKS
SAVANNAH ARPT  CLOUDY    67  62  84 NE7       29.84S
HUNTER AAF     CLOUDY    66  66 100 E7        29.81R
FORT STEWART   CLOUDY    66  63  88 NE3       29.80R
STATESBORO     LGT RAIN  65  65 100 E6        29.85S
SYLVANIA       CLOUDY   N/A N/A N/A SE8       29.86S
CLAXTON        CLOUDY   N/A N/A N/A NE9       29.84S

...CSRA...CENTRAL AND FAR SOUTHEAST GEORGIA...

CITY           SKY/WX    TMP DP  RH WIND       PRES   REMARKS
THOMSON        CLOUDY    69  62  79 CALM      29.91R
AUGUSTA-BUSH   CLOUDY    73  58  59 E6        29.85S
AUGUSTA-DANIEL MOSUNNY   72  56  57 SE5       29.86F
SWAINSBORO     DRIZZLE   64  63  94 E14       29.86R
VIDALIA        DRIZZLE   64  64 100 NE8       29.83F
EASTMAN        CLOUDY    69  53  56 E15G22    29.85R
HAZLEHURST     LGT RAIN  65  65 100 NE5       29.81S
ALMA           LGT RAIN  64  64 100 NE3       29.80S FOG
WAYCROSS       RAIN      66  66 100 CALM      29.79S
JESUP          LGT RAIN  66  63  88 NE5       29.80S
BAXLEY         LGT RAIN  64  64 100 NE8       29.81S
BRUNSWICK      CLOUDY    68  66  94 E8        29.80R
SAINT SIMONS   CLOUDY    68  64  87 E9        29.78R

$$

SCZ027-028-034-036>038-045-046-048>050-GAZ119-141-222300-
...LAKE AND SUPPLEMENTAL COASTAL OBSERVATIONS...

STATION/POSITION TIME  TEMP    WIND        PRES    WAVE   SWELL
                       AIR SEA DIR/SP/G            HT/PER HT/PER/DIR
                 (UTC) (F)     (DEG/KT/KT) (MB)    (FT/S) (FT/S/D)
WINYAH BAY       2145   65      80/  6     1012.0F
LAKE MURRAY      2130   70     100/  7/  9 1011.2S
ACE BASIN NERRS  2130   69      80/  4     1011.0S
FORT PULASKI     2200   64 61   70/ 10/ 12 1010.4
SAPELO ISLAND    2200   66      80/  9     1009.0

$$

ANZ835-935-AMZ111-154-330-350-352-354-370-450-454-472-222300-
...C-MAN AND BUOY OBSERVATIONS...

STATION/POSITION TIME  TEMP    WIND        PRES    WAVE   SWELL
                       AIR SEA DIR/SP/G            HT/PER HT/PER/DIR
                 (UTC) (F)     (DEG/KT/KT) (MB)    (FT/S) (FT/S/D)
BUOY 41004       2150   69 70  120/ 19/ 25 1010.5F   6/ 6   2/180/14
BUOY 41008       2150   65 63   70/ 12/ 14 1008.4S   6/ 8   5/130/ 8
FOLLY BEACH CMAN 2200   63      70/ 11/ 12 1012.1F
CAPERS NEARSHORE 2108   62 60   80/  8/ 14 1011.7R
FRIPP NEARSHORE  2208   65 60  100/ 12/ 16 1010.2F


STATION/POSITION TIME  TEMP    WIND        PRES    WAVE   SWELL
                       AIR SEA DIR/SP/G            HT/PER HT/PER/DIR
                 (UTC) (F)     (DEG/KT/KT) (MB)    (FT/S) (FT/S/D)
5E ST. MARYS GA  2200      63                N/A     5/ 7
FRYING PAN BUOY  2210   69 69  130/ 14/ 17 1013.0
BUOY 41025       2150   68 75  140/ 12/ 14 1014.6S   4/ 9   3/ 60/ 9
CAPE LOOKOUT NC  2200   65     150/  5/  5 1013.9S
BUOY 41002       2150   66 70  100/ 14/ 17 1014.7R   5/11   5/ 50/11
BUOY 41010       NOT AVBL
ST AUGUSTINE FL  2200   67 68   40/ 11/ 14 1007.7R


$$




USA.gov is the U.S. government's official web portal to all federal, state and local government web resources and services.